Time,TemperatureF,DewpointF,PressureIn,WindDirection,WindDirectionDegrees,WindSpeedMPH,WindSpeedGustMPH,Humidity,HourlyPrecipIn,Conditions,Clouds,dailyrainin,SolarRadiationWatts/m^2,SoftwareType,DateUTC
2013-09-07 00:22:00,41.0,40.0,-100.00,West,278,0.0,0.0,96,0.00,,,0.04,0.000000,,2013-09-07 07:22:00,
2013-09-07 00:33:00,41.0,40.0,-100.00,West,278,0.0,0.0,96,0.00,,,0.04,0.000000,,2013-09-07 07:33:00,
2013-09-07 00:42:00,41.0,40.0,-100.00,West,278,0.0,0.0,96,0.00,,,0.04,0.000000,,2013-09-07 07:42:00,
2013-09-07 00:52:00,41.0,40.0,-100.00,West,278,0.0,0.0,96,0.00,,,0.04,0.000000,,2013-09-07 07:52:00,
2013-09-07 01:22:00,40.0,39.0,-100.00,West,275,0.0,0.0,96,0.00,,,0.04,0.000000,,2013-09-07 08:22:00,
2013-09-07 01:32:00,40.0,39.0,-100.00,West,275,0.0,0.0,96,0.00,,,0.04,0.000000,,2013-09-07 08:32:00,
2013-09-07 01:43:00,40.0,39.0,-100.00,West,275,0.0,0.0,96,0.00,,,0.04,0.000000,,2013-09-07 08:43:00,
2013-09-07 01:52:00,40.0,39.0,-100.00,West,275,0.0,0.0,96,0.00,,,0.04,0.000000,,2013-09-07 08:52:00,
2013-09-07 02:42:00,37.0,36.0,-100.00,West,276,0.0,4.0,96,0.00,,,0.04,0.000000,,2013-09-07 09:42:00,
2013-09-07 02:52:00,37.0,36.0,-100.00,West,276,0.0,4.0,96,0.00,,,0.04,0.000000,,2013-09-07 09:52:00,
2013-09-07 03:21:00,39.0,38.0,-100.00,WNW,283,0.0,3.0,97,0.00,,,0.03,0.000000,,2013-09-07 10:21:00,
2013-09-07 03:31:00,39.0,38.0,-100.00,WNW,283,0.0,3.0,97,0.00,,,0.03,0.000000,,2013-09-07 10:31:00,
2013-09-07 03:41:00,39.0,38.0,-100.00,WNW,283,0.0,3.0,97,0.00,,,0.03,0.000000,,2013-09-07 10:41:00,
2013-09-07 03:51:00,39.0,38.0,-100.00,WNW,283,0.0,3.0,97,0.00,,,0.03,0.000000,,2013-09-07 10:51:00,
2013-09-07 04:23:00,37.0,36.0,-100.00,West,281,0.0,4.0,97,0.00,,,0.03,0.000000,,2013-09-07 11:23:00,
2013-09-07 04:33:00,37.0,36.0,-100.00,West,281,0.0,4.0,97,0.00,,,0.03,0.000000,,2013-09-07 11:33:00,
2013-09-07 04:43:00,37.0,36.0,-100.00,West,281,0.0,4.0,97,0.00,,,0.03,0.000000,,2013-09-07 11:43:00,
2013-09-07 04:52:00,37.0,36.0,-100.00,West,281,0.0,4.0,97,0.00,,,0.03,0.000000,,2013-09-07 11:52:00,
2013-09-07 05:22:00,37.0,36.0,-100.00,WNW,288,0.0,4.0,97,0.00,,,0.02,0.000000,,2013-09-07 12:22:00,
2013-09-07 05:32:00,37.0,36.0,-100.00,WNW,288,0.0,4.0,97,0.00,,,0.02,0.000000,,2013-09-07 12:32:00,
2013-09-07 05:42:00,37.0,36.0,-100.00,WNW,288,0.0,4.0,97,0.00,,,0.02,0.000000,,2013-09-07 12:42:00,
2013-09-07 05:52:00,37.0,36.0,-100.00,WNW,288,0.0,4.0,97,0.00,,,0.02,0.000000,,2013-09-07 12:52:00,
2013-09-07 06:21:00,38.0,37.0,-100.00,West,280,0.0,5.0,97,0.00,,,0.02,0.000000,,2013-09-07 13:21:00,
2013-09-07 06:32:00,38.0,37.0,-100.00,West,280,0.0,5.0,97,0.00,,,0.02,0.000000,,2013-09-07 13:32:00,
2013-09-07 06:42:00,38.0,37.0,-100.00,West,280,0.0,5.0,97,0.00,,,0.02,0.000000,,2013-09-07 13:42:00,
2013-09-07 06:52:00,38.0,37.0,-100.00,West,280,0.0,5.0,97,0.00,,,0.02,0.000000,,2013-09-07 13:52:00,
2013-09-07 07:22:00,36.0,35.0,-100.00,WNW,288,0.0,4.0,97,0.00,,,0.01,2.000000,,2013-09-07 14:22:00,
2013-09-07 07:32:00,36.0,35.0,-100.00,WNW,288,0.0,4.0,97,0.00,,,0.01,2.000000,,2013-09-07 14:32:00,
2013-09-07 07:42:00,36.0,35.0,-100.00,WNW,288,0.0,4.0,97,0.00,,,0.01,2.000000,,2013-09-07 14:42:00,
2013-09-07 08:22:00,41.0,40.0,-100.00,WNW,288,0.0,0.0,97,-99.99,,,0.00,28.000000,,2013-09-07 15:22:00,
2013-09-07 08:34:00,41.0,40.0,-100.00,WNW,288,0.0,0.0,97,-99.99,,,0.00,28.000000,,2013-09-07 15:34:00,
2013-09-07 08:44:00,41.0,40.0,-100.00,WNW,288,0.0,0.0,97,-99.99,,,0.00,28.000000,,2013-09-07 15:44:00,
2013-09-07 08:53:00,41.0,40.0,-100.00,WNW,288,0.0,0.0,97,-99.99,,,0.00,28.000000,,2013-09-07 15:53:00,
2013-09-07 09:24:00,49.0,48.0,-100.00,WNW,283,0.0,0.0,97,0.00,,,0.00,71.000000,,2013-09-07 16:24:00,
2013-09-07 09:34:00,49.0,48.0,-100.00,WNW,283,0.0,0.0,97,0.00,,,0.00,71.000000,,2013-09-07 16:34:00,
2013-09-07 09:43:00,49.0,48.0,-100.00,WNW,283,0.0,0.0,97,0.00,,,0.00,71.000000,,2013-09-07 16:43:00,
2013-09-07 09:53:00,49.0,48.0,-100.00,WNW,283,0.0,0.0,97,0.00,,,0.00,71.000000,,2013-09-07 16:53:00,
2013-09-07 14:44:00,79.0,39.0,-100.00,South,174,0.0,6.0,24,-99.99,,,0.00,838.000000,,2013-09-07 21:44:00,
2013-09-07 15:43:00,77.0,43.0,-100.00,NNW,341,0.0,6.0,30,-99.99,,,0.00,767.000000,,2013-09-07 22:43:00,
2013-09-07 15:53:00,77.0,43.0,-100.00,NNW,341,0.0,6.0,30,-99.99,,,0.00,767.000000,,2013-09-07 22:53:00,
2013-09-07 16:23:00,76.0,47.0,-100.00,ENE,64,1.0,10.0,36,0.00,,,0.00,642.000000,,2013-09-07 23:23:00,
2013-09-07 16:34:00,76.0,47.0,-100.00,ENE,64,1.0,10.0,36,0.00,,,0.00,642.000000,,2013-09-07 23:34:00,
2013-09-07 16:42:00,76.0,47.0,-100.00,ENE,64,1.0,10.0,36,0.00,,,0.00,642.000000,,2013-09-07 23:42:00,
2013-09-07 16:52:00,76.0,47.0,-100.00,ENE,64,1.0,10.0,36,0.00,,,0.00,642.000000,,2013-09-07 23:52:00,
2013-09-07 17:22:00,72.0,44.0,-100.00,SSE,151,1.0,8.0,37,0.00,,,0.00,243.000000,,2013-09-08 00:22:00,
2013-09-07 17:32:00,72.0,44.0,-100.00,SSE,151,1.0,8.0,37,0.00,,,0.00,243.000000,,2013-09-08 00:32:00,
2013-09-07 17:42:00,72.0,44.0,-100.00,SSE,151,1.0,8.0,37,0.00,,,0.00,243.000000,,2013-09-08 00:42:00,
2013-09-07 17:52:00,72.0,44.0,-100.00,SSE,151,1.0,8.0,37,0.00,,,0.00,243.000000,,2013-09-08 00:52:00,
2013-09-07 18:22:00,66.0,45.0,-100.00,NNE,33,0.0,7.0,47,0.00,,,0.00,99.000000,,2013-09-08 01:22:00,
2013-09-07 18:32:00,66.0,45.0,-100.00,NNE,33,0.0,7.0,47,0.00,,,0.00,99.000000,,2013-09-08 01:32:00,
2013-09-07 18:42:00,66.0,45.0,-100.00,NNE,33,0.0,7.0,47,0.00,,,0.00,99.000000,,2013-09-08 01:42:00,
2013-09-07 18:52:00,66.0,45.0,-100.00,NNE,33,0.0,7.0,47,0.00,,,0.00,99.000000,,2013-09-08 01:52:00,
2013-09-07 19:22:00,60.0,47.0,-100.00,East,87,0.0,4.0,61,0.00,,,0.00,25.000000,,2013-09-08 02:22:00,
2013-09-07 19:32:00,60.0,47.0,-100.00,East,87,0.0,4.0,61,0.00,,,0.00,25.000000,,2013-09-08 02:32:00,
2013-09-07 19:43:00,60.0,47.0,-100.00,East,87,0.0,4.0,61,0.00,,,0.00,25.000000,,2013-09-08 02:43:00,
2013-09-07 19:52:00,60.0,47.0,-100.00,East,87,0.0,4.0,61,0.00,,,0.00,25.000000,,2013-09-08 02:52:00,
2013-09-07 20:44:00,53.0,46.0,-100.00,WNW,287,0.0,4.0,76,0.00,,,0.00,4.000000,,2013-09-08 03:44:00,
2013-09-07 20:54:00,53.0,46.0,-100.00,WNW,287,0.0,4.0,76,0.00,,,0.00,4.000000,,2013-09-08 03:54:00,
2013-09-07 21:24:00,51.0,46.0,-100.00,West,275,0.0,3.0,83,0.00,,,0.00,0.000000,,2013-09-08 04:24:00,
2013-09-07 21:34:00,51.0,46.0,-100.00,West,275,0.0,3.0,83,0.00,,,0.00,0.000000,,2013-09-08 04:34:00,
2013-09-07 21:43:00,51.0,46.0,-100.00,West,275,0.0,3.0,83,0.00,,,0.00,0.000000,,2013-09-08 04:43:00,
2013-09-07 21:53:00,51.0,46.0,-100.00,West,275,0.0,3.0,83,0.00,,,0.00,0.000000,,2013-09-08 04:53:00,
2013-09-07 22:43:00,47.0,43.0,-100.00,West,277,0.0,3.0,86,0.00,,,0.00,0.000000,,2013-09-08 05:43:00,
2013-09-07 22:52:00,47.0,43.0,-100.00,West,277,0.0,3.0,86,0.00,,,0.00,0.000000,,2013-09-08 05:52:00,
2013-09-07 23:42:00,45.0,42.0,-100.00,West,275,0.0,3.0,89,0.00,,,0.00,0.000000,,2013-09-08 06:42:00,
2013-09-07 23:53:00,45.0,42.0,-100.00,West,275,0.0,3.0,89,0.00,,,0.00,0.000000,,2013-09-08 06:53:00,